Year,Month,Day,Hour,Minute,Value (Times are PST for temperature in C)
2008,09,28,00,00,9.60
2008,09,28,00,01,9.60
2008,09,28,00,02,9.60
2008,09,28,00,03,9.60
2008,09,28,00,04,9.60
2008,09,28,00,05,9.60
2008,09,28,00,06,9.60
2008,09,28,00,07,9.60
2008,09,28,00,08,9.60
2008,09,28,00,09,9.60
2008,09,28,00,10,9.60
2008,09,28,00,11,9.50
2008,09,28,00,12,9.50
2008,09,28,00,13,9.50
2008,09,28,00,14,9.50
2008,09,28,00,15,9.50
2008,09,28,00,16,9.50
2008,09,28,00,17,9.50
2008,09,28,00,18,9.40
2008,09,28,00,19,9.40
2008,09,28,00,20,9.40
2008,09,28,00,21,9.40
2008,09,28,00,22,9.40
2008,09,28,00,23,9.40
2008,09,28,00,24,9.40
2008,09,28,00,25,9.40
2008,09,28,00,26,9.40
2008,09,28,00,27,9.40
2008,09,28,00,28,9.40
2008,09,28,00,29,9.40
2008,09,28,00,30,9.40
2008,09,28,00,31,9.40
2008,09,28,00,32,9.40
2008,09,28,00,33,9.40
2008,09,28,00,34,9.40
2008,09,28,00,35,9.30
2008,09,28,00,36,9.30
2008,09,28,00,37,9.30
2008,09,28,00,38,9.30
2008,09,28,00,39,9.30
2008,09,28,00,40,9.30
2008,09,28,00,41,9.30
2008,09,28,00,42,9.30
2008,09,28,00,43,9.30
2008,09,28,00,44,9.30
2008,09,28,00,45,9.30
2008,09,28,00,46,9.30
2008,09,28,00,47,9.30
2008,09,28,00,48,9.30
2008,09,28,00,49,9.30
2008,09,28,00,50,9.30
2008,09,28,00,51,9.30
2008,09,28,00,52,9.30
2008,09,28,00,53,9.30
2008,09,28,00,54,9.30
2008,09,28,00,55,9.30
2008,09,28,00,56,9.30
2008,09,28,00,57,9.20
2008,09,28,00,58,9.20
2008,09,28,00,59,9.20
2008,09,28,01,00,9.20
2008,09,28,01,01,9.20
2008,09,28,01,02,9.20
2008,09,28,01,03,9.20
2008,09,28,01,04,9.20
2008,09,28,01,05,9.20
2008,09,28,01,06,9.20
2008,09,28,01,07,9.20
2008,09,28,01,08,9.20
2008,09,28,01,09,9.20
2008,09,28,01,10,9.20
2008,09,28,01,11,9.20
2008,09,28,01,12,9.20
2008,09,28,01,13,9.20
2008,09,28,01,14,9.10
2008,09,28,01,15,9.10
2008,09,28,01,16,9.10
2008,09,28,01,17,9.10
2008,09,28,01,18,9.10
2008,09,28,01,19,9.10
2008,09,28,01,20,9.10
2008,09,28,01,21,9.10
2008,09,28,01,22,9.10
2008,09,28,01,23,9.10
2008,09,28,01,24,9.10
2008,09,28,01,25,9.10
2008,09,28,01,26,9.10
2008,09,28,01,27,9.10
2008,09,28,01,28,9.10
2008,09,28,01,29,9.10
2008,09,28,01,30,9.00
2008,09,28,01,31,9.00
2008,09,28,01,32,9.00
2008,09,28,01,33,9.00
2008,09,28,01,34,9.00
2008,09,28,01,35,8.90
2008,09,28,01,36,8.90
2008,09,28,01,37,8.90
2008,09,28,01,38,8.90
2008,09,28,01,39,8.90
2008,09,28,01,40,8.90
2008,09,28,01,41,8.90
2008,09,28,01,42,8.90
2008,09,28,01,43,8.90
2008,09,28,01,44,8.90
2008,09,28,01,45,8.90
2008,09,28,01,46,8.90
2008,09,28,01,47,8.80
2008,09,28,01,48,8.80
2008,09,28,01,49,8.80
2008,09,28,01,50,8.80
2008,09,28,01,51,8.80
2008,09,28,01,52,8.80
2008,09,28,01,53,8.80
2008,09,28,01,54,8.80
2008,09,28,01,55,8.80
2008,09,28,01,56,8.80
2008,09,28,01,57,8.80
2008,09,28,01,58,8.80
2008,09,28,01,59,8.80
2008,09,28,02,00,8.80
2008,09,28,02,01,8.80
2008,09,28,02,02,8.80
2008,09,28,02,03,8.80
2008,09,28,02,04,8.70
2008,09,28,02,05,8.70
2008,09,28,02,06,8.70
2008,09,28,02,07,8.70
2008,09,28,02,08,8.70
2008,09,28,02,09,8.70
2008,09,28,02,10,8.70
2008,09,28,02,11,8.70
2008,09,28,02,12,8.70
2008,09,28,02,13,8.70
2008,09,28,02,14,8.70
2008,09,28,02,15,8.70
2008,09,28,02,16,8.70
2008,09,28,02,17,8.70
2008,09,28,02,18,8.70
2008,09,28,02,19,8.70
2008,09,28,02,20,8.70
2008,09,28,02,21,8.70
2008,09,28,02,22,8.70
2008,09,28,02,23,8.70
2008,09,28,02,24,8.70
2008,09,28,02,25,8.70
2008,09,28,02,26,8.70
2008,09,28,02,27,8.70
2008,09,28,02,28,8.70
2008,09,28,02,29,8.70
2008,09,28,02,30,8.70
2008,09,28,02,31,8.70
2008,09,28,02,32,8.70
2008,09,28,02,33,8.60
2008,09,28,02,34,8.60
2008,09,28,02,35,8.60
2008,09,28,02,36,8.60
2008,09,28,02,37,8.60
2008,09,28,02,38,8.60
2008,09,28,02,39,8.60
2008,09,28,02,40,8.60
2008,09,28,02,41,8.60
2008,09,28,02,42,8.60
2008,09,28,02,43,8.60
2008,09,28,02,44,8.60
2008,09,28,02,45,8.60
2008,09,28,02,46,8.60
2008,09,28,02,47,8.60
2008,09,28,02,48,8.60
2008,09,28,02,49,8.50
2008,09,28,02,50,8.50
2008,09,28,02,51,8.50
2008,09,28,02,52,8.50
2008,09,28,02,53,8.50
2008,09,28,02,54,8.50
2008,09,28,02,55,8.50
2008,09,28,02,56,8.50
2008,09,28,02,57,8.50
2008,09,28,02,58,8.50
2008,09,28,02,59,8.50
2008,09,28,03,00,8.50
2008,09,28,03,01,8.40
2008,09,28,03,02,8.40
2008,09,28,03,03,8.40
2008,09,28,03,04,8.40
2008,09,28,03,05,8.40
2008,09,28,03,06,8.40
2008,09,28,03,07,8.40
2008,09,28,03,08,8.40
2008,09,28,03,09,8.40
2008,09,28,03,10,8.40
2008,09,28,03,11,8.40
2008,09,28,03,12,8.40
2008,09,28,03,13,8.40
2008,09,28,03,14,8.40
2008,09,28,03,15,8.40
2008,09,28,03,16,8.40
2008,09,28,03,17,8.40
2008,09,28,03,18,8.30
2008,09,28,03,19,8.40
2008,09,28,03,20,8.30
2008,09,28,03,21,8.40
2008,09,28,03,22,8.40
2008,09,28,03,23,8.40
2008,09,28,03,24,8.40
2008,09,28,03,25,8.30
2008,09,28,03,26,8.30
2008,09,28,03,27,8.30
2008,09,28,03,28,8.30
2008,09,28,03,29,8.30
2008,09,28,03,30,8.30
2008,09,28,03,31,8.30
2008,09,28,03,32,8.30
2008,09,28,03,33,8.30
2008,09,28,03,34,8.30
2008,09,28,03,35,8.30
2008,09,28,03,36,8.30
2008,09,28,03,37,8.30
2008,09,28,03,38,8.30
2008,09,28,03,39,8.30
2008,09,28,03,40,8.30
2008,09,28,03,41,8.30
2008,09,28,03,42,8.30
2008,09,28,03,43,8.30
2008,09,28,03,44,8.30
2008,09,28,03,45,8.20
2008,09,28,03,46,8.20
2008,09,28,03,47,8.20
2008,09,28,03,48,8.20
2008,09,28,03,49,8.20
2008,09,28,03,50,8.20
2008,09,28,03,51,8.20
2008,09,28,03,52,8.20
2008,09,28,03,53,8.20
2008,09,28,03,54,8.20
2008,09,28,03,55,8.20
2008,09,28,03,56,8.20
2008,09,28,03,57,8.20
2008,09,28,03,58,8.20
2008,09,28,03,59,8.20
2008,09,28,04,00,8.20
2008,09,28,04,01,8.20
2008,09,28,04,02,8.20
2008,09,28,04,03,8.20
2008,09,28,04,04,8.20
2008,09,28,04,05,8.20
2008,09,28,04,06,8.20
2008,09,28,04,07,8.10
2008,09,28,04,08,8.10
2008,09,28,04,09,8.10
2008,09,28,04,10,8.10
2008,09,28,04,11,8.10
2008,09,28,04,12,8.10
2008,09,28,04,13,8.10
2008,09,28,04,14,8.10
2008,09,28,04,15,8.10
2008,09,28,04,16,8.10
2008,09,28,04,17,8.10
2008,09,28,04,18,8.10
2008,09,28,04,19,8.10
2008,09,28,04,20,8.10
2008,09,28,04,21,8.10
2008,09,28,04,22,8.10
2008,09,28,04,23,8.10
2008,09,28,04,24,8.10
2008,09,28,04,25,8.10
2008,09,28,04,26,8.10
2008,09,28,04,27,8.10
2008,09,28,04,28,8.10
2008,09,28,04,29,8.10
2008,09,28,04,30,8.10
2008,09,28,04,31,8.00
2008,09,28,04,32,8.00
2008,09,28,04,33,8.00
2008,09,28,04,34,8.00
2008,09,28,04,35,8.10
2008,09,28,04,36,8.10
2008,09,28,04,37,8.10
2008,09,28,04,38,8.10
2008,09,28,04,39,8.10
2008,09,28,04,40,8.10
2008,09,28,04,41,8.10
2008,09,28,04,42,8.10
2008,09,28,04,43,8.10
2008,09,28,04,44,8.10
2008,09,28,04,45,8.10
2008,09,28,04,46,8.10
2008,09,28,04,47,8.10
2008,09,28,04,48,8.10
2008,09,28,04,49,8.10
2008,09,28,04,50,8.10
2008,09,28,04,51,8.10
2008,09,28,04,52,8.10
2008,09,28,04,53,8.10
2008,09,28,04,54,8.10
2008,09,28,04,55,8.10
2008,09,28,04,56,8.10
2008,09,28,04,57,8.10
2008,09,28,04,58,8.10
2008,09,28,04,59,8.10
2008,09,28,05,00,8.10
2008,09,28,05,01,8.10
2008,09,28,05,02,8.10
2008,09,28,05,03,8.10
2008,09,28,05,04,8.10
2008,09,28,05,05,8.10
2008,09,28,05,06,8.10
2008,09,28,05,07,8.10
2008,09,28,05,08,8.10
2008,09,28,05,09,8.10
2008,09,28,05,10,8.10
2008,09,28,05,11,8.10
2008,09,28,05,12,8.10
2008,09,28,05,13,8.10
2008,09,28,05,14,8.10
2008,09,28,05,15,8.10
2008,09,28,05,16,8.10
2008,09,28,05,17,8.00
2008,09,28,05,18,8.00
2008,09,28,05,19,8.00
2008,09,28,05,20,8.00
2008,09,28,05,21,8.00
2008,09,28,05,22,8.00
2008,09,28,05,23,8.00
2008,09,28,05,24,8.00
2008,09,28,05,25,8.00
2008,09,28,05,26,8.00
2008,09,28,05,27,8.00
2008,09,28,05,28,8.00
2008,09,28,05,29,8.00
2008,09,28,05,30,8.00
2008,09,28,05,31,8.00
2008,09,28,05,32,8.00
2008,09,28,05,33,8.00
2008,09,28,05,34,8.00
2008,09,28,05,35,8.00
2008,09,28,05,36,8.00
2008,09,28,05,37,8.00
2008,09,28,05,38,8.00
2008,09,28,05,39,8.00
2008,09,28,05,40,8.00
2008,09,28,05,41,8.00
2008,09,28,05,42,8.00
2008,09,28,05,43,8.00
2008,09,28,05,44,8.00
2008,09,28,05,45,8.00
2008,09,28,05,46,8.00
2008,09,28,05,47,8.00
2008,09,28,05,48,8.00
2008,09,28,05,49,8.00
2008,09,28,05,50,8.00
2008,09,28,05,51,8.00
2008,09,28,05,52,8.00
2008,09,28,05,53,8.00
2008,09,28,05,54,8.00
2008,09,28,05,55,8.00
2008,09,28,05,56,7.90
2008,09,28,05,57,8.00
2008,09,28,05,58,7.90
2008,09,28,05,59,7.90
2008,09,28,06,00,7.90
2008,09,28,06,01,7.90
2008,09,28,06,02,7.90
2008,09,28,06,03,7.90
2008,09,28,06,04,7.90
2008,09,28,06,05,7.90
2008,09,28,06,06,7.90
2008,09,28,06,07,7.80
2008,09,28,06,08,7.80
2008,09,28,06,09,7.80
2008,09,28,06,10,7.80
2008,09,28,06,11,7.80
2008,09,28,06,12,7.80
2008,09,28,06,13,7.80
2008,09,28,06,14,7.80
2008,09,28,06,15,7.80
2008,09,28,06,16,7.70
2008,09,28,06,17,7.70
2008,09,28,06,18,7.70
2008,09,28,06,19,7.70
2008,09,28,06,20,7.70
2008,09,28,06,21,7.70
2008,09,28,06,22,7.70
2008,09,28,06,23,7.70
2008,09,28,06,24,7.70
2008,09,28,06,25,7.70
2008,09,28,06,26,7.70
2008,09,28,06,27,7.70
2008,09,28,06,28,7.70
2008,09,28,06,29,7.70
2008,09,28,06,30,7.70
2008,09,28,06,31,7.70
2008,09,28,06,32,7.70
2008,09,28,06,33,7.70
2008,09,28,06,34,7.70
2008,09,28,06,35,7.70
2008,09,28,06,36,7.70
2008,09,28,06,37,7.70
2008,09,28,06,38,7.70
2008,09,28,06,39,7.70
2008,09,28,06,40,7.70
2008,09,28,06,41,7.70
2008,09,28,06,42,7.70
2008,09,28,06,43,7.70
2008,09,28,06,44,7.70
2008,09,28,06,45,7.70
2008,09,28,06,46,7.70
2008,09,28,06,47,7.70
2008,09,28,06,48,7.70
2008,09,28,06,49,7.70
2008,09,28,06,50,7.70
2008,09,28,06,51,7.70
2008,09,28,06,52,7.70
2008,09,28,06,53,7.70
2008,09,28,06,54,7.60
2008,09,28,06,55,7.60
2008,09,28,06,56,7.60
2008,09,28,06,57,7.70
2008,09,28,06,58,7.70
2008,09,28,06,59,7.70
2008,09,28,07,00,7.70
2008,09,28,07,01,7.70
2008,09,28,07,02,7.70
2008,09,28,07,03,7.70
2008,09,28,07,04,7.70
2008,09,28,07,05,7.70
2008,09,28,07,06,7.70
2008,09,28,07,07,7.70
2008,09,28,07,08,7.70
2008,09,28,07,09,7.70
2008,09,28,07,10,7.70
2008,09,28,07,11,7.70
2008,09,28,07,12,7.70
2008,09,28,07,13,7.70
2008,09,28,07,14,7.70
2008,09,28,07,15,7.70
2008,09,28,07,16,7.70
2008,09,28,07,17,7.70
2008,09,28,07,18,7.70
2008,09,28,07,19,7.70
2008,09,28,07,20,7.70
2008,09,28,07,21,7.70
2008,09,28,07,22,7.70
2008,09,28,07,23,7.70
2008,09,28,07,24,7.70
2008,09,28,07,25,7.70
2008,09,28,07,26,7.70
2008,09,28,07,27,7.70
2008,09,28,07,28,7.70
2008,09,28,07,29,7.70
2008,09,28,07,30,7.70
2008,09,28,07,31,7.70
2008,09,28,07,32,7.70
2008,09,28,07,33,7.70
2008,09,28,07,34,7.70
2008,09,28,07,35,7.70
2008,09,28,07,36,7.70
2008,09,28,07,37,7.70
2008,09,28,07,38,7.70
2008,09,28,07,39,7.70
2008,09,28,07,40,7.70
2008,09,28,07,41,7.70
2008,09,28,07,42,7.70
2008,09,28,07,43,7.70
2008,09,28,07,44,7.70
2008,09,28,07,45,7.70
2008,09,28,07,46,7.70
2008,09,28,07,47,7.70
2008,09,28,07,48,7.70
2008,09,28,07,49,7.70
2008,09,28,07,50,7.70
2008,09,28,07,51,7.70
2008,09,28,07,52,7.70
2008,09,28,07,53,7.70
2008,09,28,07,54,7.70
2008,09,28,07,55,7.70
2008,09,28,07,56,7.70
2008,09,28,07,57,7.70
2008,09,28,07,58,7.70
2008,09,28,07,59,7.70
2008,09,28,08,00,7.70
2008,09,28,08,01,7.70
2008,09,28,08,02,7.70
2008,09,28,08,03,7.70
2008,09,28,08,04,7.70
2008,09,28,08,05,7.60
2008,09,28,08,06,7.60
2008,09,28,08,07,7.60
2008,09,28,08,08,7.60
2008,09,28,08,09,7.60
2008,09,28,08,10,7.60
2008,09,28,08,11,7.60
2008,09,28,08,12,7.60
2008,09,28,08,13,7.60
2008,09,28,08,14,7.60
2008,09,28,08,15,7.70
2008,09,28,08,16,7.70
2008,09,28,08,17,7.70
2008,09,28,08,18,7.70
2008,09,28,08,19,7.70
2008,09,28,08,20,7.70
2008,09,28,08,21,7.70
2008,09,28,08,22,7.70
2008,09,28,08,23,7.70
2008,09,28,08,24,7.70
2008,09,28,08,25,7.70
2008,09,28,08,26,7.80
2008,09,28,08,27,7.80
2008,09,28,08,28,7.80
2008,09,28,08,29,7.80
2008,09,28,08,30,7.90
2008,09,28,08,31,7.90
2008,09,28,08,32,7.90
2008,09,28,08,33,7.90
2008,09,28,08,34,8.00
2008,09,28,08,35,8.00
2008,09,28,08,36,8.00
2008,09,28,08,37,8.10
2008,09,28,08,38,8.10
2008,09,28,08,39,8.10
2008,09,28,08,40,8.10
2008,09,28,08,41,8.10
2008,09,28,08,42,8.10
2008,09,28,08,43,8.20
2008,09,28,08,44,8.20
2008,09,28,08,45,8.20
2008,09,28,08,46,8.20
2008,09,28,08,47,8.20
2008,09,28,08,48,8.20
2008,09,28,08,49,8.30
2008,09,28,08,50,8.30
2008,09,28,08,51,8.30
2008,09,28,08,52,8.30
2008,09,28,08,53,8.30
2008,09,28,08,54,8.30
2008,09,28,08,55,8.40
2008,09,28,08,56,8.40
2008,09,28,08,57,8.40
2008,09,28,08,58,8.40
2008,09,28,08,59,8.40
2008,09,28,09,00,8.40
2008,09,28,09,01,8.40
2008,09,28,09,02,8.40
2008,09,28,09,03,8.40
2008,09,28,09,04,8.40
2008,09,28,09,05,8.40
2008,09,28,09,06,8.40
2008,09,28,09,07,8.40
2008,09,28,09,08,8.50
2008,09,28,09,09,8.50
2008,09,28,09,10,8.50
2008,09,28,09,11,8.50
2008,09,28,09,12,8.60
2008,09,28,09,13,8.60
2008,09,28,09,14,8.60
2008,09,28,09,15,8.60
2008,09,28,09,16,8.60
2008,09,28,09,17,8.60
2008,09,28,09,18,8.60
2008,09,28,09,19,8.70
2008,09,28,09,20,8.70
2008,09,28,09,21,8.70
2008,09,28,09,22,8.70
2008,09,28,09,23,8.70
2008,09,28,09,24,8.70
2008,09,28,09,25,8.80
2008,09,28,09,26,8.80
2008,09,28,09,27,8.80
2008,09,28,09,28,8.80
2008,09,28,09,29,8.80
2008,09,28,09,30,8.90
2008,09,28,09,31,8.90
2008,09,28,09,32,8.90
2008,09,28,09,33,8.90
2008,09,28,09,34,9.00
2008,09,28,09,35,9.00
2008,09,28,09,36,9.00
2008,09,28,09,37,9.00
2008,09,28,09,38,9.10
2008,09,28,09,39,9.10
2008,09,28,09,40,9.10
2008,09,28,09,41,9.10
2008,09,28,09,42,9.10
2008,09,28,09,43,9.20
2008,09,28,09,44,9.20
2008,09,28,09,45,9.20
2008,09,28,09,46,9.20
2008,09,28,09,47,9.20
2008,09,28,09,48,9.30
2008,09,28,09,49,9.30
2008,09,28,09,50,9.30
2008,09,28,09,51,9.30
2008,09,28,09,52,9.40
2008,09,28,09,53,9.40
2008,09,28,09,54,9.40
2008,09,28,09,55,9.50
2008,09,28,09,56,9.50
2008,09,28,09,57,9.50
2008,09,28,09,58,9.60
2008,09,28,09,59,9.60
2008,09,28,10,00,9.60
2008,09,28,10,01,9.70
2008,09,28,10,02,9.70
2008,09,28,10,03,9.80
2008,09,28,10,04,9.80
2008,09,28,10,05,9.80
2008,09,28,10,06,9.90
2008,09,28,10,07,9.90
2008,09,28,10,08,10.00
2008,09,28,10,09,10.00
2008,09,28,10,10,10.10
2008,09,28,10,11,10.20
2008,09,28,10,12,10.20
2008,09,28,10,13,10.30
2008,09,28,10,14,10.40
2008,09,28,10,15,10.40
2008,09,28,10,16,10.40
2008,09,28,10,17,10.50
2008,09,28,10,18,10.50
2008,09,28,10,19,10.60
2008,09,28,10,20,10.60
2008,09,28,10,21,10.60
2008,09,28,10,22,10.70
2008,09,28,10,23,10.70
2008,09,28,10,24,10.80
2008,09,28,10,25,10.80
2008,09,28,10,26,10.90
2008,09,28,10,27,10.90
2008,09,28,10,28,10.90
2008,09,28,10,29,11.00
2008,09,28,10,30,11.00
2008,09,28,10,31,11.10
2008,09,28,10,32,11.10
2008,09,28,10,33,11.10
2008,09,28,10,34,11.20
2008,09,28,10,35,11.20
2008,09,28,10,36,11.20
2008,09,28,10,37,11.20
2008,09,28,10,38,11.30
2008,09,28,10,39,11.30
2008,09,28,10,40,11.30
2008,09,28,10,41,11.30
2008,09,28,10,42,11.30
2008,09,28,10,43,11.40
2008,09,28,10,44,11.40
2008,09,28,10,45,11.40
2008,09,28,10,46,11.50
2008,09,28,10,47,11.50
2008,09,28,10,48,11.50
2008,09,28,10,49,11.60
2008,09,28,10,50,11.60
2008,09,28,10,51,11.60
2008,09,28,10,52,11.60
2008,09,28,10,53,11.60
2008,09,28,10,54,11.70
2008,09,28,10,55,11.70
2008,09,28,10,56,11.70
2008,09,28,10,57,11.70
2008,09,28,10,58,11.70
2008,09,28,10,59,11.80
2008,09,28,11,00,11.80
2008,09,28,11,01,11.80
2008,09,28,11,02,11.80
2008,09,28,11,03,11.80
2008,09,28,11,04,11.90
2008,09,28,11,05,11.90
2008,09,28,11,06,11.90
2008,09,28,11,07,11.90
2008,09,28,11,08,12.00
2008,09,28,11,09,12.00
2008,09,28,11,10,12.10
2008,09,28,11,11,12.10
2008,09,28,11,12,12.10
2008,09,28,11,13,12.20
2008,09,28,11,14,12.20
2008,09,28,11,15,12.30
2008,09,28,11,16,12.30
2008,09,28,11,17,12.30
2008,09,28,11,18,12.40
2008,09,28,11,19,12.50
2008,09,28,11,20,12.50
2008,09,28,11,21,12.60
2008,09,28,11,22,12.70
2008,09,28,11,23,12.70
2008,09,28,11,24,12.80
2008,09,28,11,25,12.80
2008,09,28,11,26,12.90
2008,09,28,11,27,12.90
2008,09,28,11,28,13.00
2008,09,28,11,29,13.00
2008,09,28,11,30,13.10
2008,09,28,11,31,13.10
2008,09,28,11,32,13.10
2008,09,28,11,33,13.20
2008,09,28,11,34,13.20
2008,09,28,11,35,13.30
2008,09,28,11,36,13.30
2008,09,28,11,37,13.30
2008,09,28,11,38,13.40
2008,09,28,11,39,13.50
2008,09,28,11,40,13.60
2008,09,28,11,41,13.70
2008,09,28,11,42,13.80
2008,09,28,11,43,13.90
2008,09,28,11,44,13.90
2008,09,28,11,45,14.00
2008,09,28,11,46,14.10
2008,09,28,11,47,14.10
2008,09,28,11,48,14.20
2008,09,28,11,49,14.20
2008,09,28,11,50,14.20
2008,09,28,11,51,14.30
2008,09,28,11,52,14.30
2008,09,28,11,53,14.30
2008,09,28,11,54,14.30
2008,09,28,11,55,14.40
2008,09,28,11,56,14.40
2008,09,28,11,57,14.50
2008,09,28,11,58,14.50
2008,09,28,11,59,14.60
2008,09,28,12,00,14.70
2008,09,28,12,01,14.70
2008,09,28,12,02,14.80
2008,09,28,12,03,14.80
2008,09,28,12,04,14.90
2008,09,28,12,05,15.00
2008,09,28,12,06,15.00
2008,09,28,12,07,15.00
2008,09,28,12,08,15.00
2008,09,28,12,09,15.00
2008,09,28,12,10,15.00
2008,09,28,12,11,15.00
2008,09,28,12,12,15.10
2008,09,28,12,13,15.20
2008,09,28,12,14,15.30
2008,09,28,12,15,15.30
2008,09,28,12,16,15.40
2008,09,28,12,17,15.40
2008,09,28,12,18,15.50
2008,09,28,12,19,15.50
2008,09,28,12,20,15.60
2008,09,28,12,21,15.60
2008,09,28,12,22,15.70
2008,09,28,12,23,15.70
2008,09,28,12,24,15.80
2008,09,28,12,25,15.80
2008,09,28,12,26,15.80
2008,09,28,12,27,15.80
2008,09,28,12,28,15.80
2008,09,28,12,29,15.90
2008,09,28,12,30,15.90
2008,09,28,12,31,15.90
2008,09,28,12,32,15.90
2008,09,28,12,33,16.00
2008,09,28,12,34,16.00
2008,09,28,12,35,16.00
2008,09,28,12,36,16.10
2008,09,28,12,37,16.10
2008,09,28,12,38,16.10
2008,09,28,12,39,16.20
2008,09,28,12,40,16.20
2008,09,28,12,41,16.20
2008,09,28,12,42,16.20
2008,09,28,12,43,16.30
2008,09,28,12,44,16.30
2008,09,28,12,45,16.30
2008,09,28,12,46,16.30
2008,09,28,12,47,16.40
2008,09,28,12,48,16.40
2008,09,28,12,49,16.40
2008,09,28,12,50,16.40
2008,09,28,12,51,16.40
2008,09,28,12,52,16.50
2008,09,28,12,53,16.50
2008,09,28,12,54,16.50
2008,09,28,12,55,16.60
2008,09,28,12,56,16.60
2008,09,28,12,57,16.60
2008,09,28,12,58,16.60
2008,09,28,12,59,16.70
2008,09,28,13,00,16.70
2008,09,28,13,01,16.70
2008,09,28,13,02,16.70
2008,09,28,13,03,16.70
2008,09,28,13,04,16.70
2008,09,28,13,05,16.80
2008,09,28,13,06,16.80
2008,09,28,13,07,16.80
2008,09,28,13,08,16.80
2008,09,28,13,09,16.90
2008,09,28,13,10,16.90
2008,09,28,13,11,16.90
2008,09,28,13,12,16.90
2008,09,28,13,13,17.00
2008,09,28,13,14,17.00
2008,09,28,13,15,17.10
2008,09,28,13,16,17.10
2008,09,28,13,17,17.20
2008,09,28,13,18,17.20
2008,09,28,13,19,17.30
2008,09,28,13,20,17.40
2008,09,28,13,21,17.40
2008,09,28,13,22,17.40
2008,09,28,13,23,17.50
2008,09,28,13,24,17.50
2008,09,28,13,25,17.60
2008,09,28,13,26,17.60
2008,09,28,13,27,17.70
2008,09,28,13,28,17.70
2008,09,28,13,29,17.80
2008,09,28,13,30,17.80
2008,09,28,13,31,17.90
2008,09,28,13,32,17.90
2008,09,28,13,33,17.90
2008,09,28,13,34,18.00
2008,09,28,13,35,18.00
2008,09,28,13,36,18.10
2008,09,28,13,37,18.10
2008,09,28,13,38,18.10
2008,09,28,13,39,18.20
2008,09,28,13,40,18.20
2008,09,28,13,41,18.20
2008,09,28,13,42,18.30
2008,09,28,13,43,18.30
2008,09,28,13,44,18.30
2008,09,28,13,45,18.40
2008,09,28,13,46,18.40
2008,09,28,13,47,18.40
2008,09,28,13,48,18.40
2008,09,28,13,49,18.50
2008,09,28,13,50,18.50
2008,09,28,13,51,18.60
2008,09,28,13,52,18.60
2008,09,28,13,53,18.60
2008,09,28,13,54,18.60
2008,09,28,13,55,18.60
2008,09,28,13,56,18.70
2008,09,28,13,57,18.70
2008,09,28,13,58,18.70
2008,09,28,13,59,18.80
2008,09,28,14,00,18.80
2008,09,28,14,01,18.80
2008,09,28,14,02,18.90
2008,09,28,14,03,19.00
2008,09,28,14,04,19.00
2008,09,28,14,05,19.10
2008,09,28,14,06,19.10
2008,09,28,14,07,19.20
2008,09,28,14,08,19.20
2008,09,28,14,09,19.30
2008,09,28,14,10,19.30
2008,09,28,14,11,19.30
2008,09,28,14,12,19.40
2008,09,28,14,13,19.40
2008,09,28,14,14,19.50
2008,09,28,14,15,19.50
2008,09,28,14,16,19.60
2008,09,28,14,17,19.60
2008,09,28,14,18,19.70
2008,09,28,14,19,19.70
2008,09,28,14,20,19.70
2008,09,28,14,21,19.70
2008,09,28,14,22,19.80
2008,09,28,14,23,19.80
2008,09,28,14,24,19.90
2008,09,28,14,25,19.90
2008,09,28,14,26,20.00
2008,09,28,14,27,20.00
2008,09,28,14,28,20.10
2008,09,28,14,29,20.10
2008,09,28,14,30,20.20
2008,09,28,14,31,20.20
2008,09,28,14,32,20.30
2008,09,28,14,33,20.30
2008,09,28,14,34,20.30
2008,09,28,14,35,20.40
2008,09,28,14,36,20.50
2008,09,28,14,37,20.50
2008,09,28,14,38,20.50
2008,09,28,14,39,20.50
2008,09,28,14,40,20.50
2008,09,28,14,41,20.50
2008,09,28,14,42,20.50
2008,09,28,14,43,20.40
2008,09,28,14,44,20.40
2008,09,28,14,45,20.40
2008,09,28,14,46,20.40
2008,09,28,14,47,20.40
2008,09,28,14,48,20.40
2008,09,28,14,49,20.30
2008,09,28,14,50,20.30
2008,09,28,14,51,20.30
2008,09,28,14,52,20.30
2008,09,28,14,53,20.20
2008,09,28,14,54,20.20
2008,09,28,14,55,20.20
2008,09,28,14,56,20.20
2008,09,28,14,57,20.20
2008,09,28,14,58,20.20
2008,09,28,14,59,20.20
2008,09,28,15,00,20.20
2008,09,28,15,01,20.20
2008,09,28,15,02,20.10
2008,09,28,15,03,20.10
2008,09,28,15,04,20.10
2008,09,28,15,05,20.10
2008,09,28,15,06,20.10
2008,09,28,15,07,20.10
2008,09,28,15,08,20.10
2008,09,28,15,09,20.10
2008,09,28,15,10,20.10
2008,09,28,15,11,20.10
2008,09,28,15,12,20.20
2008,09,28,15,13,20.20
2008,09,28,15,14,20.20
2008,09,28,15,15,20.20
2008,09,28,15,16,20.20
2008,09,28,15,17,20.30
2008,09,28,15,18,20.30
2008,09,28,15,19,20.40
2008,09,28,15,20,20.50
2008,09,28,15,21,20.50
2008,09,28,15,22,20.60
2008,09,28,15,23,20.60
2008,09,28,15,24,20.60
2008,09,28,15,25,20.70
2008,09,28,15,26,20.70
2008,09,28,15,27,20.70
2008,09,28,15,28,20.70
2008,09,28,15,29,20.70
2008,09,28,15,30,20.70
2008,09,28,15,31,20.70
2008,09,28,15,32,20.70
2008,09,28,15,33,20.80
2008,09,28,15,34,20.80
2008,09,28,15,35,20.80
2008,09,28,15,36,20.80
2008,09,28,15,37,20.80
2008,09,28,15,38,20.80
2008,09,28,15,39,20.80
2008,09,28,15,40,20.80
2008,09,28,15,41,20.80
2008,09,28,15,42,20.80
2008,09,28,15,43,20.90
2008,09,28,15,44,21.00
2008,09,28,15,45,21.00
2008,09,28,15,46,21.10
2008,09,28,15,47,21.10
2008,09,28,15,48,21.20
2008,09,28,15,49,21.20
2008,09,28,15,50,21.20
2008,09,28,15,51,21.30
2008,09,28,15,52,21.30
2008,09,28,15,53,21.40
2008,09,28,15,54,21.40
2008,09,28,15,55,21.50
2008,09,28,15,56,21.50
2008,09,28,15,57,21.50
2008,09,28,15,58,21.60
2008,09,28,15,59,21.60
2008,09,28,16,00,21.60
2008,09,28,16,01,21.70
2008,09,28,16,02,21.70
2008,09,28,16,03,21.70
2008,09,28,16,04,21.80
2008,09,28,16,05,21.80
2008,09,28,16,06,21.80
2008,09,28,16,07,21.70
2008,09,28,16,08,21.70
2008,09,28,16,09,21.70
2008,09,28,16,10,21.70
2008,09,28,16,11,21.70
2008,09,28,16,12,21.80
2008,09,28,16,13,21.80
2008,09,28,16,14,21.80
2008,09,28,16,15,21.80
2008,09,28,16,16,21.80
2008,09,28,16,17,21.70
2008,09,28,16,18,21.70
2008,09,28,16,19,21.70
2008,09,28,16,20,21.70
2008,09,28,16,21,21.70
2008,09,28,16,22,21.70
2008,09,28,16,23,21.70
2008,09,28,16,24,21.70
2008,09,28,16,25,21.60
2008,09,28,16,26,21.60
2008,09,28,16,27,21.60
2008,09,28,16,28,21.60
2008,09,28,16,29,21.60
2008,09,28,16,30,21.60
2008,09,28,16,31,21.50
2008,09,28,16,32,21.50
2008,09,28,16,33,21.40
2008,09,28,16,34,21.40
2008,09,28,16,35,21.30
2008,09,28,16,36,21.20
2008,09,28,16,37,21.20
2008,09,28,16,38,21.10
2008,09,28,16,39,21.10
2008,09,28,16,40,21.10
2008,09,28,16,41,21.00
2008,09,28,16,42,21.00
2008,09,28,16,43,21.00
2008,09,28,16,44,20.90
2008,09,28,16,45,20.90
2008,09,28,16,46,20.90
2008,09,28,16,47,20.90
2008,09,28,16,48,20.90
2008,09,28,16,49,20.90
2008,09,28,16,50,20.90
2008,09,28,16,51,20.90
2008,09,28,16,52,20.90
2008,09,28,16,53,20.90
2008,09,28,16,54,20.90
2008,09,28,16,55,20.90
2008,09,28,16,56,20.90
2008,09,28,16,57,20.90
2008,09,28,16,58,20.80
2008,09,28,16,59,20.80
2008,09,28,17,00,20.70
2008,09,28,17,01,20.70
2008,09,28,17,02,20.70
2008,09,28,17,03,20.70
2008,09,28,17,04,20.60
2008,09,28,17,05,20.60
2008,09,28,17,06,20.50
2008,09,28,17,07,20.50
2008,09,28,17,08,20.50
2008,09,28,17,09,20.40
2008,09,28,17,10,20.40
2008,09,28,17,11,20.40
2008,09,28,17,12,20.40
2008,09,28,17,13,20.40
2008,09,28,17,14,20.40
2008,09,28,17,15,20.40
2008,09,28,17,16,20.30
2008,09,28,17,17,20.30
2008,09,28,17,18,20.40
2008,09,28,17,19,20.40
2008,09,28,17,20,20.40
2008,09,28,17,21,20.40
2008,09,28,17,22,20.40
2008,09,28,17,23,20.40
2008,09,28,17,24,20.40
2008,09,28,17,25,20.40
2008,09,28,17,26,20.40
2008,09,28,17,27,20.40
2008,09,28,17,28,20.50
2008,09,28,17,29,20.50
2008,09,28,17,30,20.50
2008,09,28,17,31,20.60
2008,09,28,17,32,20.60
2008,09,28,17,33,20.60
2008,09,28,17,34,20.70
2008,09,28,17,35,20.70
2008,09,28,17,36,20.70
2008,09,28,17,37,20.70
2008,09,28,17,38,20.70
2008,09,28,17,39,20.60
2008,09,28,17,40,20.60
2008,09,28,17,41,20.60
2008,09,28,17,42,20.60
2008,09,28,17,43,20.60
2008,09,28,17,44,20.50
2008,09,28,17,45,20.50